Satellite: GOLIAT Catalog number: 38085 Epoch time: 14086.51173783 Element set: 916 Inclination: 069.4621 deg RA of node: 209.5717 deg Eccentricity: 0.0456568 Arg of perigee: 115.0331 deg Mean anomaly: 249.8941 deg Mean motion: 14.85670153 rev/day Decay rate: 1.47767e-03 rev/day^2 Epoch rev: 11107 Checksum: 326
Satellite: HORYU-2 Catalog number: 38340 Epoch time: 14085.85990312 Element set: 805 Inclination: 098.2513 deg RA of node: 041.7281 deg Eccentricity: 0.0013667 Arg of perigee: 077.8118 deg Mean anomaly: 282.4609 deg Mean motion: 14.72129664 rev/day Decay rate: 4.138e-05 rev/day^2 Epoch rev: 9968 Checksum: 324
Satellite: RS-40 Catalog number: 38735 Epoch time: 14086.63948960 Element set: 526 Inclination: 082.4804 deg RA of node: 338.3980 deg Eccentricity: 0.0017756 Arg of perigee: 072.1555 deg Mean anomaly: 288.1466 deg Mean motion: 12.42557911 rev/day Decay rate: 2.4e-07 rev/day^2 Epoch rev: 7545 Checksum: 328
Satellite: PROITERES Catalog number: 38756 Epoch time: 14086.78091125 Element set: 690 Inclination: 098.2297 deg RA of node: 173.7482 deg Eccentricity: 0.0011272 Arg of perigee: 283.4913 deg Mean anomaly: 076.5039 deg Mean motion: 14.74787473 rev/day Decay rate: 1.808e-05 rev/day^2 Epoch rev: 8318 Checksum: 335
Satellite: BEESAT-3 Catalog number: 39134 Epoch time: 14086.90584524 Element set: 538 Inclination: 064.8624 deg RA of node: 035.6052 deg Eccentricity: 0.0020771 Arg of perigee: 324.3315 deg Mean anomaly: 035.6416 deg Mean motion: 15.04029475 rev/day Decay rate: 1.6360e-04 rev/day^2 Epoch rev: 5143 Checksum: 283
Satellite: BEESAT-2 Catalog number: 39136 Epoch time: 14086.47453617 Element set: 527 Inclination: 064.8657 deg RA of node: 037.2262 deg Eccentricity: 0.0020344 Arg of perigee: 323.3941 deg Mean anomaly: 036.5794 deg Mean motion: 15.03563178 rev/day Decay rate: 1.4082e-04 rev/day^2 Epoch rev: 5136 Checksum: 301
Satellite: LO-75 Catalog number: 39382 Epoch time: 14086.53243129 Element set: 167 Inclination: 040.4981 deg RA of node: 223.1898 deg Eccentricity: 0.0012040 Arg of perigee: 013.2249 deg Mean anomaly: 346.9191 deg Mean motion: 15.33149944 rev/day Decay rate: 9.2978e-04 rev/day^2 Epoch rev: 1947 Checksum: 326
Satellite: ZACUBE-1 Catalog number: 39417 Epoch time: 14086.86193902 Element set: 256 Inclination: 097.7820 deg RA of node: 160.2681 deg Eccentricity: 0.0063379 Arg of perigee: 146.2236 deg Mean anomaly: 214.3038 deg Mean motion: 14.77742666 rev/day Decay rate: 4.427e-05 rev/day^2 Epoch rev: 1868 Checksum: 324
Satellite: TRITON-1 Catalog number: 39427 Epoch time: 14085.96905524 Element set: 107 Inclination: 097.7694 deg RA of node: 156.8875 deg Eccentricity: 0.0119614 Arg of perigee: 151.5378 deg Mean anomaly: 209.2477 deg Mean motion: 14.65075854 rev/day Decay rate: 3.763e-05 rev/day^2 Epoch rev: 1835 Checksum: 347
Satellite: DELFIN3XT Catalog number: 39428 Epoch time: 14085.97584854 Element set: 111 Inclination: 097.7676 deg RA of node: 156.4096 deg Eccentricity: 0.0130779 Arg of perigee: 152.6151 deg Mean anomaly: 208.2106 deg Mean motion: 14.62784645 rev/day Decay rate: 5.922e-05 rev/day^2 Epoch rev: 1831 Checksum: 326
Satellite: GOMX-1 Catalog number: 39430 Epoch time: 14086.77454531 Element set: 341 Inclination: 097.7668 deg RA of node: 155.9736 deg Eccentricity: 0.0157879 Arg of perigee: 153.0378 deg Mean anomaly: 207.9131 deg Mean motion: 14.56524966 rev/day Decay rate: 3.829e-05 rev/day^2 Epoch rev: 1836 Checksum: 346
Satellite: MO-76 Catalog number: 39436 Epoch time: 14085.98863635 Element set: 145 Inclination: 097.7824 deg RA of node: 160.9783 deg Eccentricity: 0.0029504 Arg of perigee: 160.1250 deg Mean anomaly: 200.1479 deg Mean motion: 14.87520545 rev/day Decay rate: 2.6451e-04 rev/day^2 Epoch rev: 1864 Checksum: 329
Satellite: LO-74 Catalog number: 39440 Epoch time: 14086.27260435 Element set: 105 Inclination: 097.7765 deg RA of node: 158.6973 deg Eccentricity: 0.0085812 Arg of perigee: 148.1796 deg Mean anomaly: 212.4664 deg Mean motion: 14.72705486 rev/day Decay rate: 4.001e-05 rev/day^2 Epoch rev: 1852 Checksum: 324
Satellite: PUCPSAT-1 Catalog number: 39442 Epoch time: 14086.21264617 Element set: 102 Inclination: 097.7859 deg RA of node: 161.1620 deg Eccentricity: 0.0035495 Arg of perigee: 152.8944 deg Mean anomaly: 207.4160 deg Mean motion: 14.85530461 rev/day Decay rate: 5.883e-05 rev/day^2 Epoch rev: 1745 Checksum: 302
Satellite: LITSAT-1 Catalog number: 39568 Epoch time: 14086.74466825 Element set: 47 Inclination: 051.6477 deg RA of node: 142.2784 deg Eccentricity: 0.0009601 Arg of perigee: 019.0864 deg Mean anomaly: 084.2791 deg Mean motion: 15.60168604 rev/day Decay rate: 2.02122e-03 rev/day^2 Epoch rev: 425 Checksum: 301
Satellite: LITUANSAT Catalog number: 39569 Epoch time: 14086.64784559 Element set: 88 Inclination: 051.6489 deg RA of node: 143.0624 deg Eccentricity: 0.0008113 Arg of perigee: 009.0452 deg Mean anomaly: 127.6044 deg Mean motion: 15.56943224 rev/day Decay rate: 1.17976e-03 rev/day^2 Epoch rev: 423 Checksum: 312
Satellite: SHINAISAT Catalog number: 39572 Epoch time: 14086.19573937 Element set: 45 Inclination: 065.0090 deg RA of node: 326.0295 deg Eccentricity: 0.0012034 Arg of perigee: 277.4603 deg Mean anomaly: 082.5178 deg Mean motion: 15.61415692 rev/day Decay rate: 5.7882e-04 rev/day^2 Epoch rev: 427 Checksum: 305
Satellite: OPUSAT Catalog number: 39575 Epoch time: 14086.14162702 Element set: 51 Inclination: 065.0114 deg RA of node: 325.7849 deg Eccentricity: 0.0004876 Arg of perigee: 300.9233 deg Mean anomaly: 059.1444 deg Mean motion: 15.65914413 rev/day Decay rate: 1.21057e-03 rev/day^2 Epoch rev: 427 Checksum: 278
Satellite: TEIKYOSAT Catalog number: 39576 Epoch time: 14086.17212704 Element set: 42 Inclination: 065.0143 deg RA of node: 325.9439 deg Eccentricity: 0.0007238 Arg of perigee: 294.8342 deg Mean anomaly: 065.2068 deg Mean motion: 15.63025481 rev/day Decay rate: 6.8358e-04 rev/day^2 Epoch rev: 427 Checksum: 297
Satellite: IFT-1 Catalog number: 39577 Epoch time: 14086.72640079 Element set: 48 Inclination: 065.0076 deg RA of node: 323.8458 deg Eccentricity: 0.0005198 Arg of perigee: 301.9088 deg Mean anomaly: 058.1555 deg Mean motion: 15.64939507 rev/day Decay rate: 9.6397e-04 rev/day^2 Epoch rev: 436 Checksum: 340
Satellite: INVADER Catalog number: 39578 Epoch time: 14086.75346632 Element set: 41 Inclination: 065.0069 deg RA of node: 323.4457 deg Eccentricity: 0.0005126 Arg of perigee: 291.1655 deg Mean anomaly: 068.9025 deg Mean motion: 15.69516792 rev/day Decay rate: 2.17662e-03 rev/day^2 Epoch rev: 437 Checksum: 314
Satellite: STARS-II Catalog number: 39579 Epoch time: 14086.69808087 Element set: 44 Inclination: 065.0069 deg RA of node: 323.7008 deg Eccentricity: 0.0009523 Arg of perigee: 255.4527 deg Mean anomaly: 104.5611 deg Mean motion: 15.71077602 rev/day Decay rate: 3.33203e-03 rev/day^2 Epoch rev: 436 Checksum: 292
/EX